VK2HAR Weather Reports


Display with metric or nautical units.
time (UTC)temp
F
wind
direction
speed
MPH
gust
MPH
rain 1hr
in
rain 24hr
in
rain mn
in
humidity
%
barometer
mb
20260503173603 56 0 0.0 0.0 0.00 0.00 0.00 94 1015.9
20260503172703 56 0 0.0 0.0 0.00 0.00 0.00 94 1015.8
20260503171803 56 0 0.0 0.0 0.00 0.00 0.00 94 1016.0
20260503170906 56 0 0.0 0.0 0.00 0.00 0.00 94 1016.0
20260503140220 58 0 0.0 0.0 0.00 0.00 0.00 92 1017.7
20260503130903 58 0 0.0 0.0 0.00 0.00 0.00 92 1018.1
20260503110218 61 73 1.0 3.0 0.00 0.00 0.00 88 1018.5
20260503080903 72 76 0.0 2.0 0.00 0.00 0.00 70 1017.8
20260503072704 74 50 2.0 4.0 0.00 0.00 0.00 64 1017.4
20260503072019 75 49 2.0 6.0 0.00 0.00 0.00 64 1017.4
20260503070905 75 47 2.0 6.0 0.00 0.00 0.00 62 1017.4
20260503054503 77 60 6.0 12.0 0.00 0.00 0.00 58 1017.6
20260503053819 77 70 7.0 13.0 0.00 0.00 0.00 58 1017.6
20260503052703 77 72 7.0 13.0 0.00 0.00 0.00 58 1017.7
20260503051803 77 66 8.0 13.0 0.00 0.00 0.00 58 1017.8
20260503050903 78 74 7.0 14.0 0.00 0.00 0.00 58 1017.8
20260503050216 78 84 9.0 14.0 0.00 0.00 0.00 58 1017.8
20260503045405 78 78 7.0 13.0 0.00 0.00 0.00 58 1017.9
20260503044503 78 79 6.0 11.0 0.00 0.00 0.00 58 1018.0
20260503043604 79 77 6.0 12.0 0.00 0.00 0.00 57 1018.0
20260503042703 79 76 8.0 15.0 0.00 0.00 0.00 57 1018.1
20260503041803 78 49 6.0 10.0 0.00 0.00 0.00 57 1018.1
20260503040904 78 52 6.0 13.0 0.00 0.00 0.00 57 1018.3
20260503040004 79 69 4.0 13.0 0.00 0.00 0.00 56 1018.5
20260503035619 79 72 5.0 11.0 0.00 0.00 0.00 56 1018.5
20260503034719 78 51 7.0 11.0 0.00 0.00 0.00 56 1018.6
20260503033818 79 81 6.0 11.0 0.00 0.00 0.00 55 1018.5
20260503032703 78 67 6.0 12.0 0.00 0.00 0.00 58 1018.7
20260503031804 78 93 7.0 12.0 0.00 0.00 0.00 61 1018.9
20260503030904 77 85 5.0 12.0 0.00 0.00 0.00 61 1019.2
20260503030003 76 91 5.0 9.0 0.00 0.00 0.00 64 1019.2
20260503025619 76 102 4.0 9.0 0.00 0.00 0.00 64 1019.3
20260503024503 76 114 3.0 9.0 0.00 0.00 0.00 65 1019.5
20260503023818 76 94 3.0 9.0 0.00 0.00 0.00 66 1019.6
20260503022704 75 70 3.0 8.0 0.00 0.00 0.00 67 1019.8
20260503021803 74 98 2.0 6.0 0.00 0.00 0.00 70 1019.9
20260503020903 73 107 3.0 6.0 0.00 0.00 0.00 71 1020.1
20260503020003 73 108 2.0 7.0 0.00 0.00 0.00 72 1020.3
20260503015403 73 117 3.0 7.0 0.00 0.00 0.00 72 1020.6
20260503014503 72 114 2.0 7.0 0.00 0.00 0.00 73 1020.8
20260503013603 73 95 3.0 8.0 0.00 0.00 0.00 73 1021.1
20260503012917 73 86 4.0 8.0 0.00 0.00 0.00 72 1021.1
20260503011803 72 79 3.0 8.0 0.00 0.00 0.00 75 1021.3
20260503010903 72 90 3.0 9.0 0.00 0.00 0.00 75 1021.6
20260503010003 71 178 2.0 6.0 0.00 0.00 0.00 78 1021.6
20260503005618 70 177 2.0 6.0 0.00 0.00 0.00 78 1021.7
20260503004718 70 155 2.0 6.0 0.00 0.00 0.00 77 1021.9
20260503003603 70 64 1.0 3.0 0.00 0.00 0.00 78 1022.2
20260503002704 69 60 2.0 4.0 0.00 0.00 0.00 80 1022.1
20260503001803 68 79 2.0 4.0 0.00 0.00 0.00 81 1022.4
20260503000903 67 80 1.0 3.0 0.00 0.00 0.00 84 1022.4
20260503000003 67 80 2.0 4.0 0.00 0.00 0.00 84 1022.4
20260502235404 67 89 2.0 4.0 0.00 0.00 0.00 84 1022.3
20260502234503 66 89 2.0 5.0 0.00 0.00 0.00 86 1022.4
20260502233603 66 96 2.0 3.0 0.00 0.00 0.00 86 1022.4
20260502232704 65 96 2.0 4.0 0.00 0.00 0.00 88 1022.6
20260502231804 64 98 1.0 3.0 0.00 0.00 0.00 90 1022.6
20260502230903 63 94 2.0 3.0 0.00 0.00 0.00 90 1022.7
20260502230218 63 83 2.0 3.0 0.00 0.00 0.00 92 1022.7
20260502225403 62 82 1.0 3.0 0.00 0.00 0.00 93 1022.9
20260502224504 62 82 1.0 2.0 0.00 0.00 0.00 93 1022.8
20260502223816 62 82 1.0 2.0 0.00 0.00 0.00 94 1023.0
20260502222703 61 82 1.0 2.0 0.00 0.00 0.00 95 1022.9
20260502221803 60 82 1.0 2.0 0.00 0.00 0.00 96 1023.0
20260502220903 59 82 1.0 3.0 0.00 0.00 0.00 97 1022.7
20260502220004 58 82 0.0 1.0 0.00 0.00 0.00 97 1022.7
20260502215617 58 82 0.0 1.0 0.00 0.00 0.00 97 1022.7
20260502214503 56 82 0.0 2.0 0.00 0.00 0.00 96 1022.7
20260502213603 56 0 0.0 0.0 0.00 0.00 0.00 95 1022.3
20260502212703 57 0 0.0 0.0 0.00 0.00 0.00 95 1022.3
20260502211803 57 0 0.0 0.0 0.00 0.00 0.00 96 1022.1
20260502210903 57 0 0.0 0.0 0.00 0.00 0.00 96 1021.9
20260502210217 57 0 0.0 0.0 0.00 0.00 0.00 96 1022.0
20260502205403 56 0 0.0 0.0 0.00 0.00 0.00 96 1021.9
20260502204504 56 0 0.0 0.0 0.00 0.00 0.00 95 1022.1
20260502203603 56 0 0.0 0.0 0.00 0.00 0.00 96 1021.8
20260502202919 56 0 0.0 0.0 0.00 0.00 0.00 96 1021.7
20260502201803 56 0 0.0 0.0 0.00 0.00 0.00 95 1021.9
20260502200903 56 82 0.0 2.0 0.00 0.00 0.00 95 1021.8
20260502200003 56 82 1.0 2.0 0.00 0.00 0.00 95 1021.8
20260502195403 57 82 0.0 2.0 0.00 0.00 0.00 95 1021.9
20260502194503 56 82 0.0 1.0 0.00 0.00 0.00 95 1021.9
20260502193603 56 0 0.0 0.0 0.00 0.00 0.00 95 1022.0
20260502192703 56 0 0.0 0.0 0.00 0.00 0.00 95 1021.9
20260502191803 56 82 0.0 2.0 0.00 0.00 0.00 95 1021.8
20260502190903 56 0 0.0 0.0 0.00 0.00 0.00 95 1021.9
20260502190004 56 0 0.0 0.0 0.00 0.00 0.00 95 1021.8
20260502185403 57 0 0.0 0.0 0.00 0.00 0.00 95 1021.8
20260502184503 57 0 0.0 0.0 0.00 0.00 0.00 95 1021.8
20260502183603 57 82 0.0 1.0 0.00 0.00 0.00 95 1021.9
20260502182703 57 82 0.0 1.0 0.00 0.00 0.00 95 1021.8
20260502181803 57 82 0.0 1.0 0.00 0.00 0.00 95 1021.8
20260502181117 57 0 0.0 0.0 0.00 0.00 0.00 94 1021.8